Location: Luna
(33.8188°N, 108.9564°W)
Time: 12:59:14
(UTC+00:00)

NOAA 15 - Pass Details

Date: 04 April 2023
Orbit: 797 x 811 km, 98.6° (Epoch: 04 June)

Event Time Altitude Azimuth Distance (km) Brightness Sun altitude
Rises 03:35:27 0° 211° (SSW) 3,317 7.9 -24.2°
Reaches altitude 10° 03:38:58 10° 236° (SW) 2,390 7.4 -24.8°
Maximum altitude 03:41:41 14° 267° (W) 2,112 7.5 -25.3°
Drops below altitude 10° 03:44:25 10° 299° (WNW) 2,395 8.1 -25.9°
Sets 03:47:58 0° 323° (NW) 3,329 8.8 -26.5°
